Morris, IL

12:44 PM CST on February 25, 2017 (GMT -0600)
Morris

Weather History for KC09 - May, 2013

Change the Weather History Date:

Friday, May 3, 2013

  Actual Average (KARR) Record (KARR)
Temperature  
Mean Temperature 50 °F -  
Max Temperature 58 °F 66 °F 86 °F (2001)
Min Temperature 42 °F 45 °F 21 °F (2005)
Degree Days  
Heating Degree Days 15    
Moisture  
Dew Point 47 °F    
Average Humidity 94    
Maximum Humidity 100    
Minimum Humidity 84    
Precipitation  
Precipitation 0.14 in - - ()
Sea Level Pressure  
Sea Level Pressure 29.99 in    
Wind  
Wind Speed 7 mph (NE)    
Max Wind Speed 13 mph    
Max Gust Speed 17 mph    
Visibility 8 miles    
Events Rain    
Averages and records for this station are not official NWS values.
T = Trace of Precipitation, MM = Missing Value Source: NWS Daily Summary

Daily Weather History Graph

Daily Weather History Graph

Search for Another Location

Airport or City:

Trip Planner

Search our weather history database for the weather conditions in past years. The results will help you decide how hot, cold, wet, or windy it might be!

Date:

Astronomy

May. 03, 2013 Rise Set
Actual Time 5:47 AM CDT 7:53 PM CDT
Civil Twilight 5:17 AM CDT 8:24 PM CDT
Nautical Twilight 4:40 AM CDT 9:01 PM CDT
Astronomical Twilight 3:59 AM CDT 9:42 PM CDT
Moon 2:16 AM CDT (5/3) 1:43 PM CDT (5/3)
Length of Visible Light 15h 06m
Length of Day
14h 05m
Last Quarter, 37% of the Moon is Illuminated
May 3
Last Quarter
May 9
New
May 17
First Quarter
May 24
Full
May 31
Last Quarter

Hourly Weather History & Observations

Time (CDT) Temp. Windchill Dew Point Humidity Pressure Visibility Wind Dir Wind Speed Gust Speed Precip Events Conditions
12:15 AM 45.9 °F 42.9 °F 41.2 °F 84% 30.11 in 10.0 mi NE 5.8 mph - N/A   Light Drizzle
12:35 AM 45.7 °F 41.5 °F 41.0 °F 84% 30.09 in 10.0 mi NE 8.1 mph - N/A Rain Light Rain
12:55 AM 45.3 °F 41.6 °F 41.2 °F 85% 30.09 in 10.0 mi NE 6.9 mph 17.3 mph N/A Rain Light Rain
1:15 AM 44.6 °F 40.7 °F 41.5 °F 89% 30.09 in 2.0 mi NE 6.9 mph - 0.10 in Rain Heavy Rain
1:35 AM 44.6 °F 42.2 °F 42.4 °F 92% 30.10 in 10.0 mi NE 4.6 mph - 0.14 in   Overcast
1:55 AM 44.2 °F 39.7 °F 42.1 °F 92% 30.09 in 10.0 mi NE 8.1 mph - 0.14 in   Overcast
2:15 AM 44.1 °F 39.5 °F 41.9 °F 92% 30.08 in 10.0 mi NE 8.1 mph - N/A Rain Light Rain
2:35 AM 43.9 °F 39.9 °F 41.7 °F 92% 30.07 in 10.0 mi NE 6.9 mph - N/A Rain Light Rain
2:55 AM 43.7 °F 40.3 °F 41.7 °F 93% 30.06 in 10.0 mi NE 5.8 mph - N/A Rain Light Rain
3:15 AM 43.2 °F 37.4 °F 41.0 °F 92% 30.05 in 10.0 mi ENE 10.4 mph 16.1 mph N/A   Mostly Cloudy
3:35 AM 43.0 °F 38.8 °F 40.8 °F 92% 30.06 in 10.0 mi NE 6.9 mph - N/A   Mostly Cloudy
3:55 AM 42.8 °F 38.6 °F 39.9 °F 90% 30.07 in 10.0 mi NE 6.9 mph - N/A   Overcast
4:15 AM 42.8 °F 40.1 °F 40.1 °F 90% 30.07 in 10.0 mi NE 4.6 mph - N/A   Overcast
4:35 AM 42.6 °F 39.0 °F 40.3 °F 91% 30.06 in 10.0 mi NE 5.8 mph - N/A Rain Rain
4:55 AM 42.4 °F 39.6 °F 40.8 °F 94% 30.05 in 10.0 mi NE 4.6 mph - N/A Rain Light Rain
5:15 AM 42.4 °F 38.8 °F 41.0 °F 95% 30.05 in 10.0 mi NE 5.8 mph - N/A Rain Light Rain
5:35 AM 42.3 °F 38.6 °F 40.8 °F 95% 30.05 in 10.0 mi NE 5.8 mph - N/A   Overcast
5:55 AM 42.3 °F - 41.0 °F 95% 30.06 in 10.0 mi Calm Calm - N/A Rain Rain
6:15 AM 42.1 °F 39.2 °F 41.0 °F 96% 30.05 in 10.0 mi NE 4.6 mph - N/A Rain Light Rain
6:35 AM 42.3 °F 40.5 °F 41.4 °F 97% 30.05 in 10.0 mi NE 3.5 mph - N/A Rain Light Rain
6:55 AM 42.4 °F 38.1 °F 41.5 °F 97% 30.05 in 10.0 mi NE 6.9 mph - N/A Rain Light Rain
7:15 AM 42.6 °F 37.2 °F 41.7 °F 97% 30.04 in 10.0 mi NE 9.2 mph 16.1 mph N/A Rain Light Rain
7:35 AM 42.8 °F 39.3 °F 42.1 °F 97% 30.04 in 10.0 mi NE 5.8 mph - N/A Rain Light Rain
7:55 AM 43.2 °F 41.5 °F 42.4 °F 97% 30.04 in 10.0 mi NE 3.5 mph - N/A Rain Rain
8:15 AM 43.2 °F 38.4 °F 42.4 °F 97% 30.04 in 10.0 mi NE 8.1 mph - N/A   Light Drizzle
8:35 AM 44.6 °F 39.7 °F 42.8 °F 93% 30.03 in 10.0 mi ENE 9.2 mph - N/A Rain Light Rain
8:55 AM 43.9 °F 39.9 °F 43.0 °F 97% 30.03 in 10.0 mi NE 6.9 mph - N/A   Light Drizzle
9:15 AM 44.4 °F 39.5 °F 43.7 °F 97% 30.03 in 7.0 mi ENE 9.2 mph - N/A Rain Light Rain
9:35 AM 45.5 °F 41.3 °F 45.0 °F 98% 30.02 in 7.0 mi ENE 8.1 mph - N/A   Light Drizzle
9:55 AM 46.8 °F - 45.9 °F 97% 30.01 in 7.0 mi NE 5.8 mph - N/A   Overcast
10:15 AM 46.6 °F - 45.3 °F 95% 30.01 in 7.0 mi ENE 11.5 mph 16.1 mph N/A Rain Light Rain
10:35 AM 46.6 °F - 45.5 °F 96% 30.01 in 7.0 mi ENE 8.1 mph - N/A Rain Light Rain
10:55 AM 46.9 °F - 46.2 °F 97% 30.01 in 5.0 mi ENE 9.2 mph - N/A Rain Light Rain
11:15 AM 47.3 °F - 46.6 °F 97% 30.01 in 4.0 mi ENE 10.4 mph - N/A Rain Light Rain
11:35 AM 47.7 °F - 47.3 °F 99% 30.01 in 2.5 mi ENE 6.9 mph - N/A Rain Light Rain
11:55 AM 48.6 °F - 48.4 °F 99% 30.00 in 3.0 mi ENE 11.5 mph - N/A Rain Light Rain
12:15 PM 49.8 °F - 49.5 °F 99% 29.99 in 3.0 mi ENE 10.4 mph - N/A Rain Light Rain
12:35 PM 50.0 °F - 50.0 °F 100% 29.98 in 3.0 mi ENE 9.2 mph - N/A   Light Drizzle
12:55 PM 52.0 °F - 51.4 °F 98% 29.97 in 4.0 mi ENE 12.7 mph - N/A   Overcast
1:15 PM 52.9 °F - 52.0 °F 97% 29.96 in 5.0 mi ENE 12.7 mph - N/A   Overcast
1:35 PM 54.1 °F - 53.1 °F 96% 29.96 in 5.0 mi ENE 10.4 mph - N/A Rain Light Rain
1:55 PM 55.4 °F - 54.0 °F 95% 29.96 in 5.0 mi East 12.7 mph - N/A   Mostly Cloudy
2:15 PM 55.2 °F - 53.4 °F 94% 29.96 in 5.0 mi East 12.7 mph 16.1 mph N/A   Mostly Cloudy
2:35 PM 55.9 °F - 53.8 °F 92% 29.95 in 7.0 mi ENE 8.1 mph - N/A   Scattered Clouds
2:55 PM 56.3 °F - 54.0 °F 92% 29.95 in 7.0 mi ENE 11.5 mph - N/A Rain Light Rain
3:15 PM 56.3 °F - 53.8 °F 91% 29.94 in 7.0 mi ENE 6.9 mph - N/A   Clear
3:35 PM 55.9 °F - 53.4 °F 91% 29.93 in 7.0 mi ENE 8.1 mph - N/A   Scattered Clouds
3:55 PM 56.5 °F - 53.6 °F 90% 29.93 in 10.0 mi ENE 6.9 mph - N/A   Clear
4:15 PM 56.3 °F - 53.4 °F 90% 29.93 in 10.0 mi NE 6.9 mph - N/A   Clear
4:35 PM 56.7 °F - 53.4 °F 89% 29.92 in 10.0 mi ENE 8.1 mph - N/A   Clear
4:55 PM 57.0 °F - 53.1 °F 87% 29.92 in 10.0 mi ENE 8.1 mph - N/A   Clear
5:15 PM 58.1 °F - 54.0 °F 86% 29.91 in 10.0 mi NE 6.9 mph - N/A   Clear
5:35 PM 57.7 °F - 53.8 °F 87% 29.91 in 10.0 mi NE 6.9 mph - N/A   Scattered Clouds
5:55 PM 57.4 °F - 53.8 °F 88% 29.91 in 10.0 mi NE 5.8 mph - N/A   Scattered Clouds
6:15 PM 55.6 °F - 52.3 °F 89% 29.91 in 10.0 mi NE 6.9 mph - N/A   Clear
6:35 PM 54.9 °F - 51.8 °F 89% 29.91 in 10.0 mi NE 9.2 mph - N/A   Clear
6:55 PM 54.1 °F - 51.8 °F 92% 29.92 in 7.0 mi NE 6.9 mph - N/A   Scattered Clouds
7:15 PM 52.9 °F - 50.4 °F 91% 29.93 in 7.0 mi ENE 11.5 mph 17.3 mph N/A   Scattered Clouds
7:35 PM 52.3 °F - 50.2 °F 92% 29.92 in 5.0 mi NE 9.2 mph - N/A   Scattered Clouds
7:55 PM 51.3 °F - 49.3 °F 93% 29.92 in 7.0 mi NE 8.1 mph - N/A   Scattered Clouds
8:15 PM 50.9 °F - 49.1 °F 94% 29.91 in 7.0 mi NE 8.1 mph - N/A   Clear
8:35 PM 50.5 °F - 48.7 °F 94% 29.92 in 7.0 mi NE 9.2 mph - N/A   Scattered Clouds
8:55 PM 50.4 °F - 48.7 °F 94% 29.93 in 7.0 mi NE 8.1 mph - N/A   Scattered Clouds
9:15 PM 50.0 °F - 48.6 °F 95% 29.93 in 7.0 mi ENE 8.1 mph - N/A   Scattered Clouds
9:35 PM 50.2 °F - 48.9 °F 95% 29.93 in 7.0 mi NE 6.9 mph - N/A   Scattered Clouds
9:55 PM 50.0 °F - 48.9 °F 96% 29.93 in 7.0 mi NE 6.9 mph - N/A   Scattered Clouds
10:15 PM 50.0 °F - 48.9 °F 96% 29.93 in 7.0 mi NE 6.9 mph - N/A   Scattered Clouds
10:35 PM 50.0 °F - 48.7 °F 95% 29.93 in 7.0 mi NE 8.1 mph - N/A   Clear
10:55 PM 50.2 °F - 49.3 °F 97% 29.92 in 7.0 mi NE 8.1 mph - N/A   Clear
11:15 PM 50.9 °F - 50.0 °F 97% 29.91 in 7.0 mi NE 8.1 mph - N/A   Clear
11:35 PM 51.3 °F - 50.4 °F 97% 29.91 in 7.0 mi ENE 5.8 mph - N/A   Clear
11:55 PM 51.8 °F - 50.7 °F 96% 29.94 in 7.0 mi East 5.8 mph - N/A   Scattered Clouds